TimeCDT,TemperatureF,Dew PointF,Humidity,Sea Level PressureIn,VisibilityMPH,Wind Direction,Wind SpeedMPH,Gust SpeedMPH,PrecipitationIn,Events,Conditions,WindDirDegrees,DateUTC
12:54 AM,63.0,57.9,84,30.08,10.0,Calm,Calm,-,N/A,,Clear,0,2013-07-29 05:54:00
1:54 AM,61.0,57.0,87,30.08,10.0,Calm,Calm,-,N/A,,Clear,0,2013-07-29 06:54:00
2:54 AM,60.1,57.9,93,30.09,10.0,Calm,Calm,-,N/A,,Clear,0,2013-07-29 07:54:00
3:54 AM,60.1,57.0,90,30.09,10.0,Calm,Calm,-,N/A,,Clear,0,2013-07-29 08:54:00
4:54 AM,60.1,57.0,90,30.11,10.0,Calm,Calm,-,N/A,,Clear,0,2013-07-29 09:54:00
5:54 AM,59.0,57.0,93,30.12,10.0,Calm,Calm,-,N/A,,Clear,0,2013-07-29 10:54:00
6:54 AM,62.1,59.0,90,30.14,10.0,WSW,3.5,-,N/A,,Clear,250,2013-07-29 11:54:00
7:54 AM,66.9,61.0,81,30.15,10.0,WSW,4.6,-,N/A,,Clear,250,2013-07-29 12:54:00
8:54 AM,70.0,62.1,76,30.16,10.0,WSW,3.5,-,N/A,,Clear,240,2013-07-29 13:54:00
9:54 AM,73.9,61.0,64,30.16,10.0,Calm,Calm,-,N/A,,Clear,0,2013-07-29 14:54:00
10:54 AM,77.0,57.9,52,30.17,10.0,Calm,Calm,-,N/A,,Clear,0,2013-07-29 15:54:00
11:54 AM,80.1,55.9,43,30.17,10.0,NNW,6.9,-,N/A,,Partly Cloudy,330,2013-07-29 16:54:00
12:54 PM,79.0,55.9,45,30.17,10.0,West,10.4,-,N/A,,Clear,260,2013-07-29 17:54:00
1:54 PM,79.0,57.0,47,30.16,10.0,Variable,6.9,-,N/A,,Clear,0,2013-07-29 18:54:00
2:54 PM,78.1,57.9,50,30.15,10.0,WSW,5.8,-,N/A,,Clear,250,2013-07-29 19:54:00
3:54 PM,81.0,59.0,47,30.15,10.0,WSW,6.9,-,N/A,,Partly Cloudy,240,2013-07-29 20:54:00
4:54 PM,79.0,59.0,50,30.15,10.0,West,4.6,-,N/A,,Clear,280,2013-07-29 21:54:00
5:54 PM,78.1,59.0,52,30.16,10.0,Calm,Calm,-,N/A,,Clear,0,2013-07-29 22:54:00
6:54 PM,77.0,63.0,62,30.14,10.0,Calm,Calm,-,N/A,,Clear,0,2013-07-29 23:54:00
7:54 PM,75.9,63.0,64,30.15,10.0,Calm,Calm,-,N/A,,Clear,0,2013-07-30 00:54:00
8:54 PM,73.0,64.0,73,30.17,10.0,Calm,Calm,-,N/A,,Clear,0,2013-07-30 01:54:00
9:54 PM,72.0,63.0,73,30.17,10.0,Calm,Calm,-,N/A,,Clear,0,2013-07-30 02:54:00
10:54 PM,70.0,64.0,81,30.17,10.0,Calm,Calm,-,N/A,,Scattered Clouds,0,2013-07-30 03:54:00
11:54 PM,69.1,64.9,87,30.17,10.0,ENE,3.5,-,N/A,,Clear,60,2013-07-30 04:54:00